Visibility
15.0 15.0 15.0 15.0 15.0 15.0 15.0 15.0 15.0 15.0 15.0 15.0 15.0 15.0 15.0 15.0 15.0 15.0 15.0 13.3 7.1 15.0 15.0 15.0 15.0 15.0 15.0 6.0 14.7 15.0 15.0 15.0 15.0 15.0 15.0 15.0 15.0 15.0 15.0 15.0 15.0 15.0 15.0 15.0 15.0 15.0 15.0
15.0 15.0 15.0 15.0 15.0 15.0 15.0 15.0 15.0 15.0 15.0 15.0 15.0 15.0 15.0 15.0 15.0 15.0 15.0 15.0 4.6 15.0 15.0 15.0 15.0 15.0 15.0 15.0 15.0 15.0 15.0 15.0 15.0 8.9 15.0 15.0 15.0 15.0 15.0 15.0 15.0 15.0 15.0 15.0 15.0 15.0 15.0
15.0 15.0 15.0 15.0 15.0 15.0 15.0 15.0 15.0 15.0 15.0 15.0 15.0 15.0 15.0 15.0 15.0 15.0 15.0 15.0 12.9 10.1 15.0 15.0 15.0 15.0 15.0 15.0 15.0 15.0 15.0 15.0 15.0 7.5 10.0 10.0 15.0 15.0 15.0 15.0 15.0 15.0 15.0 15.0 15.0 15.0 15.0
15.0 15.0 15.0 15.0 15.0 13.6 14.5 15.0 14.8 15.0 15.0 15.0 15.0 15.0 15.0 15.0 15.0 15.0 15.0 15.0 15.0 4.4 15.0 15.0 15.0 15.0 15.0 15.0 15.0 15.0 15.0 15.0 15.0 15.0 15.0 15.0 15.0 15.0 15.0 15.0 15.0 15.0 15.0 15.0 15.0 15.0 15.0
15.0 15.0 15.0 15.0 15.0 15.0 13.7 10.8 15.0 15.0 15.0 15.0 15.0 15.0 15.0 15.0 15.0 15.0 15.0 15.0 15.0 3.7 11.1 15.0 15.0 15.0 15.0 15.0 15.0 15.0 15.0 15.0 15.0 15.0 15.0 15.0 12.8 15.0 15.0 15.0 15.0 15.0 15.0 15.0 15.0 15.0 15.0
15.0 15.0 15.0 15.0 15.0 12.1 11.1 12.8 14.9 15.0 11.6 13.7 11.6 15.0 15.0 15.0 15.0 15.0 15.0 15.0 15.0 2.3 5.3 12.1 15.0 15.0 15.0 15.0 15.0 15.0 15.0 15.0 15.0 15.0 15.0 15.0 15.0 15.0 15.0 15.0 15.0 15.0 15.0 15.0 15.0 15.0 15.0
15.0 15.0 15.0 15.0 15.0 13.3 7.8 7.6 15.0 15.0 10.3 10.5 14.4 15.0 8.9 15.0 3.5 12.4 15.0 15.0 0.1 0.1 2.2 14.9 15.0 15.0 15.0 15.0 15.0 15.0 15.0 15.0 15.0 15.0 15.0 15.0 15.0 15.0 15.0 15.0 15.0 15.0 15.0 15.0 15.0 15.0 15.0
15.0 15.0 15.0 15.0 13.7 8.4 12.7 15.0 8.2 15.0 8.7 12.9 13.2 15.0 7.2 14.9 15.0 13.5 15.0 4.9 1.7 7.4 7.8 15.0 15.0 15.0 15.0 15.0 15.0 15.0 15.0 15.0 15.0 15.0 15.0 15.0 15.0 15.0 15.0 15.0 15.0 15.0 15.0 15.0 15.0 15.0 15.0
15.0 15.0 15.0 14.1 13.4 14.8 10.9 8.2 7.4 10.9 10.3 15.0 15.0 15.0 6.7 11.6 15.0 15.0 15.0 6.9 3.9 3.7 6.4 14.3 15.0 15.0 15.0 15.0 15.0 15.0 15.0 15.0 15.0 15.0 15.0 15.0 15.0 15.0 15.0 15.0 15.0 15.0 15.0 15.0 15.0 15.0 15.0
15.0 15.0 12.8 15.0 15.0 12.8 14.1 14.0 13.4 10.5 12.1 8.7 11.4 15.0 9.8 9.5 14.0 14.7 9.4 14.6 3.3 10.9 0.0 0.2 15.0 15.0 15.0 15.0 15.0 15.0 15.0 15.0 15.0 15.0 15.0 15.0 15.0 15.0 15.0 15.0 15.0 15.0 15.0 15.0 15.0 15.0 15.0
15.0 9.6 14.0 14.4 15.0 13.2 11.7 13.7 15.0 15.0 15.0 15.0 15.0 14.5 14.1 7.8 13.6 15.0 10.2 4.4 3.5 3.4 0.1 12.0 15.0 15.0 15.0 15.0 15.0 15.0 15.0 15.0 15.0 15.0 15.0 15.0 15.0 15.0 15.0 15.0 15.0 15.0 15.0 15.0 15.0 15.0 15.0
15.0 12.1 14.9 15.0 15.0 13.9 13.7 10.4 15.0 15.0 15.0 15.0 15.0 7.2 8.5 9.3 15.0 15.0 15.0 2.1 2.3 0.0 0.1 1.5 15.0 15.0 15.0 15.0 15.0 15.0 15.0 15.0 15.0 15.0 15.0 15.0 15.0 15.0 15.0 15.0 15.0 15.0 15.0 15.0 15.0 15.0 7.8
15.0 14.7 13.6 15.0 13.4 15.0 12.5 14.4 15.0 15.0 15.0 15.0 15.0 4.9 6.5 6.5 6.1 11.8 12.3 6.0 0.0 0.0 12.2 0.8 12.0 15.0 15.0 15.0 15.0 15.0 15.0 15.0 15.0 6.4 11.2 15.0 15.0 15.0 15.0 15.0 15.0 15.0 14.8 15.0 7.8 0.7 15.0
15.0 14.7 15.0 15.0 15.0 12.0 14.7 13.7 15.0 15.0 15.0 15.0 13.8 8.3 14.8 15.0 12.9 10.7 9.0 7.0 0.0 9.9 15.0 15.0 15.0 15.0 4.9 15.0 15.0 15.0 15.0 13.6 15.0 15.0 15.0 15.0 13.3 15.0 15.0 15.0 15.0 15.0 14.6 15.0 15.0 15.0 15.0
15.0 15.0 14.3 14.9 15.0 15.0 12.1 15.0 15.0 15.0 14.4 13.0 11.8 15.0 14.2 14.9 7.0 15.0 14.0 15.0 0.0 14.5 15.0 14.3 11.2 5.8 4.5 15.0 15.0 11.0 15.0 15.0 15.0 15.0 15.0 15.0 15.0 15.0 15.0 15.0 15.0 14.6 15.0 15.0 13.8 15.0 15.0
15.0 15.0 15.0 15.0 14.9 15.0 14.9 15.0 15.0 15.0 13.8 15.0 12.8 15.0 9.5 15.0 15.0 15.0 8.9 0.0 11.5 15.0 15.0 15.0 14.4 15.0 14.7 15.0 12.4 15.0 15.0 15.0 15.0 15.0 15.0 15.0 15.0 15.0 15.0 15.0 15.0 15.0 15.0 5.8 9.0 5.7 15.0
14.7 15.0 14.2 14.4 11.3 15.0 14.0 15.0 15.0 14.3 15.0 15.0 15.0 0.9 10.2 8.6 14.7 15.0 0.2 0.0 8.0 15.0 15.0 15.0 15.0 15.0 15.0 15.0 14.6 15.0 15.0 15.0 15.0 15.0 15.0 15.0 15.0 15.0 15.0 15.0 15.0 15.0 13.8 6.4 15.0 3.6 3.7
15.0 15.0 15.0 13.7 15.0 15.0 15.0 15.0 15.0 12.9 9.1 15.0 15.0 0.0 6.4 15.0 0.1 3.0 0.0 0.1 12.9 15.0 15.0 15.0 15.0 15.0 15.0 15.0 15.0 15.0 15.0 15.0 15.0 15.0 15.0 15.0 15.0 15.0 15.0 15.0 15.0 15.0 15.0 15.0 0.5 14.1 4.5
15.0 15.0 15.0 14.5 12.0 15.0 15.0 15.0 15.0 14.6 13.9 13.5 0.4 0.5 13.9 1.3 6.2 15.0 0.2 4.8 10.2 12.9 13.2 15.0 15.0 15.0 15.0 15.0 15.0 15.0 15.0 15.0 15.0 15.0 15.0 15.0 12.0 12.3 14.9 13.2 15.0 15.0 15.0 15.0 15.0 1.1 0.3
15.0 15.0 15.0 15.0 15.0 15.0 15.0 15.0 15.0 15.0 13.2 15.0 0.3 0.0 7.4 15.0 15.0 15.0 0.1 2.1 6.6 12.9 15.0 15.0 15.0 15.0 15.0 15.0 15.0 15.0 15.0 15.0 15.0 15.0 15.0 15.0 15.0 15.0 15.0 15.0 15.0 0.6 13.2 15.0 4.2 0.0 14.2
15.0 15.0 15.0 15.0 15.0 15.0 15.0 15.0 15.0 15.0 15.0 15.0 15.0 13.5 12.5 15.0 6.1 11.7 15.0 15.0 15.0 15.0 15.0 15.0 15.0 15.0 15.0 15.0 15.0 15.0 15.0 15.0 15.0 15.0 15.0 15.0 0.1 15.0 15.0 15.0 15.0 15.0 15.0 15.0 0.1 0.1 0.0
15.0 15.0 15.0 15.0 15.0 15.0 15.0 15.0 15.0 15.0 15.0 15.0 0.4 0.1 10.2 15.0 15.0 15.0 15.0 3.2 4.9 15.0 15.0 15.0 15.0 15.0 15.0 15.0 14.5 15.0 15.0 15.0 14.9 15.0 15.0 15.0 0.1 0.4 9.0 15.0 15.0 15.0 15.0 14.6 0.1 0.3 0.1
15.0 15.0 15.0 15.0 15.0 15.0 15.0 15.0 15.0 15.0 15.0 15.0 15.0 15.0 0.3 14.5 15.0 15.0 15.0 15.0 15.0 15.0 15.0 15.0 15.0 15.0 15.0 15.0 15.0 15.0 15.0 15.0 15.0 15.0 15.0 12.7 2.1 0.1 15.0 15.0 15.0 11.4 0.8 0.2 0.4 15.0 1.7
15.0 15.0 15.0 15.0 15.0 15.0 15.0 15.0 15.0 15.0 15.0 9.5 15.0 9.5 0.3 14.7 15.0 15.0 15.0 15.0 15.0 15.0 15.0 15.0 15.0 12.3 15.0 15.0 15.0 15.0 15.0 15.0 15.0 15.0 15.0 15.0 0.3 0.2 0.0 9.8 0.4 13.0 15.0 15.0 15.0 15.0 15.0
15.0 15.0 15.0 15.0 15.0 15.0 15.0 15.0 15.0 15.0 15.0 15.0 15.0 0.2 3.1 2.5 15.0 15.0 15.0 15.0 15.0 15.0 15.0 15.0 15.0 15.0 15.0 15.0 15.0 15.0 15.0 15.0 15.0 15.0 15.0 15.0 12.4 0.0 0.0 9.6 14.0 15.0 15.0 15.0 13.8 14.0 15.0
15.0 15.0 15.0 15.0 15.0 15.0 15.0 15.0 15.0 15.0 15.0 15.0 15.0 15.0 0.4 0.1 15.0 15.0 15.0 15.0 5.3 7.2 15.0 15.0 15.0 15.0 15.0 15.0 14.2 13.7 14.4 14.6 14.5 15.0 15.0 15.0 15.0 0.0 0.0 0.1 3.0 15.0 15.0 15.0 15.0 1.8 15.0
15.0 15.0 15.0 15.0 15.0 15.0 15.0 15.0 15.0 15.0 15.0 15.0 15.0 15.0 5.4 9.1 15.0 15.0 15.0 15.0 15.0 15.0 15.0 15.0 15.0 15.0 15.0 14.4 8.5 9.0 9.4 15.0 15.0 7.3 15.0 6.0 7.1 0.0 0.0 0.1 15.0 15.0 15.0 15.0 15.0 15.0 15.0
15.0 15.0 15.0 15.0 15.0 15.0 15.0 15.0 15.0 15.0 15.0 15.0 15.0 15.0 11.1 0.2 3.4 15.0 15.0 15.0 15.0 15.0 15.0 15.0 15.0 15.0 15.0 2.9 13.1 11.3 2.7 6.4 15.0 15.0 15.0 15.0 15.0 12.3 14.6 0.3 5.8 15.0 15.0 15.0 15.0 15.0 15.0
15.0 15.0 15.0 15.0 15.0 15.0 15.0 15.0 15.0 15.0 15.0 15.0 15.0 15.0 15.0 1.2 3.0 15.0 15.0 15.0 15.0 15.0 10.2 15.0 15.0 15.0 15.0 14.1 1.3 14.5 0.9 15.0 15.0 14.8 15.0 15.0 15.0 15.0 15.0 15.0 15.0 15.0 15.0 15.0 15.0 15.0 15.0